Overview Statistics Trail Chart Weather Telemetry Raw packets
 

This is the latest recevied weather packets stored in our database for station/object SR4DIG-13. If no packets are shown the sender has not sent any weather packets the latest 10 day(s).

<< 17 18 19 20 21 22 23 >>
Time Temp. Humidity Pressure Rain* Wind** Luminosity Snow
1788519865 20.56° C 66% 1008.3 hPa 0 mm - - -
1788519564 21.11° C 67% 1008.4 hPa 0 mm - - -
1788519264 21.11° C 66% 1008.4 hPa 0 mm - - -
1788518962 20.56° C 68% 1008.4 hPa 0 mm - - -
1788518357 20.56° C 68% 1008.3 hPa 0 mm - - -
1788518056 20.56° C 68% 1008.3 hPa 0 mm - - -
1788517756 20.56° C 68% 1008.3 hPa 0 mm - - -
1788517455 21.11° C 68% 1008.3 hPa 0 mm - - -
1788517154 21.11° C 68% 1008.6 hPa 0 mm - - -
1788516853 20.56° C 69% 1008.6 hPa 0 mm - - -
1788516552 20.56° C 69% 1008.8 hPa 0 mm - - -
1788516251 20.56° C 70% 1008.8 hPa 0 mm - - -
1788515950 20° C 69% 1009 hPa 0 mm - - -
1788515649 20.56° C 69% 1009 hPa 0 mm - - -
1788515349 20.56° C 68% 1008.7 hPa 0 mm - - -
1788515047 21.11° C 67% 1008.7 hPa 0 mm - - -
1788514746 21.67° C 67% 1009 hPa 0 mm - - -
1788514445 21.67° C 67% 1009 hPa 0 mm - - -
1788514145 21.67° C 68% 1009 hPa 0 mm - - -
1788513844 21.11° C 71% 1009 hPa 0 mm - - -
1788513543 20.56° C 71% 1008.8 hPa 0 mm - - -
1788513242 20° C 72% 1008.9 hPa 0 mm - - -
1788512941 19.44° C 74% 1009 hPa 0 mm - - -
1788512350 19.44° C 74% 1009.1 hPa 0 mm - - -
1788512049 19.44° C 74% 1009.1 hPa 0 mm - - -

* Rain latest hour (hover to see other rain measurements)
** Current wind speed in m/s (hover to see current wind gust speed)